Time,TemperatureF,DewpointF,PressureIn,WindDirection,WindDirectionDegrees,WindSpeedMPH,WindSpeedGustMPH,Humidity,HourlyPrecipIn,Conditions,Clouds,dailyrainin,SoftwareType,DateUTC
2013-03-13 00:04:00,23.8,13.0,30.41,SW,216,0.0,-999.0,63,-99.99,,,0.00,weatherlink.com 1.10,2013-03-13 06:04:00,
2013-03-13 00:19:00,23.7,12.0,30.40,WSW,244,0.0,-999.0,62,-99.99,,,0.00,weatherlink.com 1.10,2013-03-13 06:19:00,
2013-03-13 00:34:00,24.2,13.0,30.40,WSW,249,0.0,-999.0,62,-99.99,,,0.00,weatherlink.com 1.10,2013-03-13 06:34:00,
2013-03-13 00:49:00,23.7,13.0,30.39,WSW,249,0.0,-999.0,63,-99.99,,,0.00,weatherlink.com 1.10,2013-03-13 06:49:00,
2013-03-13 01:04:00,23.3,13.0,30.38,NW,317,0.0,-999.0,64,-99.99,,,0.00,weatherlink.com 1.10,2013-03-13 07:04:00,
2013-03-13 01:19:00,23.4,12.0,30.38,NNW,347,0.0,-999.0,63,-99.99,,,0.00,weatherlink.com 1.10,2013-03-13 07:19:00,
2013-03-13 01:34:00,23.4,12.0,30.40,NNW,348,0.0,-999.0,63,-99.99,,,0.00,weatherlink.com 1.10,2013-03-13 07:34:00,
2013-03-13 01:49:00,23.2,12.0,30.40,NNW,348,0.0,-999.0,63,-99.99,,,0.00,weatherlink.com 1.10,2013-03-13 07:49:00,
2013-03-13 02:04:00,22.6,12.0,30.39,WSW,242,1.0,-999.0,64,-99.99,,,0.00,weatherlink.com 1.10,2013-03-13 08:04:00,
2013-03-13 02:19:00,23.3,12.0,30.39,WSW,242,1.0,-999.0,62,-99.99,,,0.00,weatherlink.com 1.10,2013-03-13 08:19:00,
2013-03-13 02:34:00,23.4,12.0,30.39,West,278,6.0,-999.0,62,-99.99,,,0.00,weatherlink.com 1.10,2013-03-13 08:34:00,
2013-03-13 02:49:00,23.3,12.0,30.38,NE,53,0.0,-999.0,62,-99.99,,,0.00,weatherlink.com 1.10,2013-03-13 08:49:00,
2013-03-13 03:04:00,22.5,12.0,30.39,NE,53,0.0,-999.0,64,-99.99,,,0.00,weatherlink.com 1.10,2013-03-13 09:04:00,
2013-03-13 03:19:00,22.0,11.0,30.39,NE,53,0.0,-999.0,64,-99.99,,,0.00,weatherlink.com 1.10,2013-03-13 09:19:00,
2013-03-13 03:34:00,22.4,12.0,30.38,WSW,257,1.0,-999.0,64,-99.99,,,0.00,weatherlink.com 1.10,2013-03-13 09:34:00,
2013-03-13 03:49:00,23.0,12.0,30.38,SW,226,0.0,-999.0,64,-99.99,,,0.00,weatherlink.com 1.10,2013-03-13 09:49:00,
2013-03-13 04:04:00,23.4,12.0,30.37,North,360,0.0,-999.0,63,-99.99,,,0.00,weatherlink.com 1.10,2013-03-13 10:04:00,
2013-03-13 04:19:00,22.8,12.0,30.37,North,360,0.0,-999.0,64,-99.99,,,0.00,weatherlink.com 1.10,2013-03-13 10:19:00,
2013-03-13 04:34:00,23.1,13.0,30.37,NW,306,1.0,-999.0,64,-99.99,,,0.00,weatherlink.com 1.10,2013-03-13 10:34:00,
2013-03-13 04:49:00,23.9,13.0,30.37,West,269,0.0,-999.0,63,-99.99,,,0.00,weatherlink.com 1.10,2013-03-13 10:49:00,
2013-03-13 05:04:00,24.4,13.0,30.37,South,186,2.0,-999.0,63,-99.99,,,0.00,weatherlink.com 1.10,2013-03-13 11:04:00,
2013-03-13 05:19:00,24.7,14.0,30.37,SSE,153,7.0,-999.0,63,-99.99,,,0.00,weatherlink.com 1.10,2013-03-13 11:19:00,
2013-03-13 05:34:00,24.8,14.0,30.39,South,191,0.0,-999.0,63,-99.99,,,0.00,weatherlink.com 1.10,2013-03-13 11:34:00,
2013-03-13 05:49:00,24.8,14.0,30.40,SW,225,3.0,-999.0,64,-99.99,,,0.00,weatherlink.com 1.10,2013-03-13 11:49:00,
2013-03-13 06:04:00,24.8,14.0,30.41,SSW,193,0.0,-999.0,64,-99.99,,,0.00,weatherlink.com 1.10,2013-03-13 12:04:00,
2013-03-13 06:19:00,24.8,14.0,30.41,SSW,202,2.0,-999.0,64,-99.99,,,0.00,weatherlink.com 1.10,2013-03-13 12:19:00,
2013-03-13 06:34:00,25.0,12.0,30.41,SSW,192,6.0,-999.0,59,-99.99,,,0.00,weatherlink.com 1.10,2013-03-13 12:34:00,
2013-03-13 06:49:00,25.5,12.0,30.41,SSW,192,2.0,-999.0,58,-99.99,,,0.00,weatherlink.com 1.10,2013-03-13 12:49:00,
2013-03-13 07:04:00,25.9,13.0,30.42,SSW,206,1.0,-999.0,59,-99.99,,,0.00,weatherlink.com 1.10,2013-03-13 13:04:00,
2013-03-13 07:19:00,25.6,13.0,30.42,SW,235,2.0,-999.0,59,-99.99,,,0.00,weatherlink.com 1.10,2013-03-13 13:19:00,
2013-03-13 07:34:00,25.7,13.0,30.43,West,263,2.0,-999.0,60,-99.99,,,0.00,weatherlink.com 1.10,2013-03-13 13:34:00,
2013-03-13 07:49:00,26.2,14.0,30.43,WSW,243,4.0,-999.0,59,-99.99,,,0.00,weatherlink.com 1.10,2013-03-13 13:49:00,
2013-03-13 08:04:00,26.6,13.0,30.45,WSW,255,1.0,-999.0,57,-99.99,,,0.00,weatherlink.com 1.10,2013-03-13 14:04:00,
2013-03-13 08:19:00,26.9,13.0,30.45,SE,139,2.0,-999.0,57,-99.99,,,0.00,weatherlink.com 1.10,2013-03-13 14:19:00,
2013-03-13 08:34:00,27.5,13.0,30.45,WSW,257,4.0,-999.0,55,-99.99,,,0.00,weatherlink.com 1.10,2013-03-13 14:34:00,
2013-03-13 08:49:00,28.2,13.0,30.46,WNW,290,8.0,-999.0,53,-99.99,,,0.00,weatherlink.com 1.10,2013-03-13 14:49:00,
2013-03-13 09:04:00,28.9,13.0,30.46,SSW,204,2.0,-999.0,51,-99.99,,,0.00,weatherlink.com 1.10,2013-03-13 15:04:00,
2013-03-13 09:19:00,30.0,13.0,30.46,SSW,196,0.0,-999.0,49,-99.99,,,0.00,weatherlink.com 1.10,2013-03-13 15:19:00,
2013-03-13 09:34:00,31.8,13.0,30.46,West,273,0.0,-999.0,46,-99.99,,,0.00,weatherlink.com 1.10,2013-03-13 15:34:00,
2013-03-13 09:49:00,33.6,14.0,30.47,NNW,346,4.0,-999.0,45,-99.99,,,0.00,weatherlink.com 1.10,2013-03-13 15:49:00,
2013-03-13 10:04:00,34.2,15.0,30.47,SSW,199,0.0,-999.0,45,-99.99,,,0.00,weatherlink.com 1.10,2013-03-13 16:04:00,
2013-03-13 10:19:00,34.7,14.0,30.47,SSW,209,0.0,-999.0,43,-99.99,,,0.00,weatherlink.com 1.10,2013-03-13 16:19:00,
2013-03-13 10:34:00,35.9,16.0,30.48,East,96,3.0,-999.0,44,-99.99,,,0.00,weatherlink.com 1.10,2013-03-13 16:34:00,
2013-03-13 10:49:00,36.4,16.0,30.47,ENE,68,5.0,-999.0,43,-99.99,,,0.00,weatherlink.com 1.10,2013-03-13 16:49:00,
2013-03-13 11:04:00,36.8,16.0,30.46,SSW,197,4.0,-999.0,42,-99.99,,,0.00,weatherlink.com 1.10,2013-03-13 17:04:00,
2013-03-13 11:19:00,37.1,16.0,30.47,South,169,1.0,-999.0,42,-99.99,,,0.00,weatherlink.com 1.10,2013-03-13 17:19:00,
2013-03-13 11:34:00,37.5,16.0,30.47,East,82,4.0,-999.0,42,-99.99,,,0.00,weatherlink.com 1.10,2013-03-13 17:34:00,
2013-03-13 11:49:00,38.3,17.0,30.47,ENE,74,2.0,-999.0,42,-99.99,,,0.00,weatherlink.com 1.10,2013-03-13 17:49:00,
2013-03-13 12:04:00,39.0,18.0,30.46,SSW,202,2.0,-999.0,42,-99.99,,,0.00,weatherlink.com 1.10,2013-03-13 18:04:00,
2013-03-13 12:19:00,40.2,17.0,30.47,ESE,117,8.0,-999.0,39,-99.99,,,0.00,weatherlink.com 1.10,2013-03-13 18:19:00,
2013-03-13 12:34:00,39.7,16.0,30.46,WSW,245,3.0,-999.0,38,-99.99,,,0.00,weatherlink.com 1.10,2013-03-13 18:34:00,
2013-03-13 12:49:00,40.3,16.0,30.47,SSE,166,0.0,-999.0,38,-99.99,,,0.00,weatherlink.com 1.10,2013-03-13 18:49:00,
2013-03-13 13:04:00,41.1,16.0,30.46,West,263,4.0,-999.0,37,-99.99,,,0.00,weatherlink.com 1.10,2013-03-13 19:04:00,
2013-03-13 13:19:00,40.5,16.0,30.46,SSW,193,2.0,-999.0,37,-99.99,,,0.00,weatherlink.com 1.10,2013-03-13 19:19:00,
2013-03-13 13:34:00,41.1,17.0,30.46,East,83,2.0,-999.0,38,-99.99,,,0.00,weatherlink.com 1.10,2013-03-13 19:34:00,
2013-03-13 13:49:00,38.9,16.0,30.45,West,270,1.0,-999.0,40,-99.99,,,0.00,weatherlink.com 1.10,2013-03-13 19:49:00,
2013-03-13 14:04:00,38.4,15.0,30.45,SW,217,1.0,-999.0,39,-99.99,,,0.00,weatherlink.com 1.10,2013-03-13 20:04:00,
2013-03-13 14:19:00,38.7,14.0,30.44,SSW,200,0.0,-999.0,37,-99.99,,,0.00,weatherlink.com 1.10,2013-03-13 20:19:00,
2013-03-13 14:34:00,40.1,16.0,30.44,WSW,246,0.0,-999.0,37,-99.99,,,0.00,weatherlink.com 1.10,2013-03-13 20:34:00,
2013-03-13 14:49:00,40.0,15.0,30.45,SSW,195,2.0,-999.0,37,-99.99,,,0.00,weatherlink.com 1.10,2013-03-13 20:49:00,
2013-03-13 15:04:00,40.1,16.0,30.44,WNW,295,0.0,-999.0,37,-99.99,,,0.00,weatherlink.com 1.10,2013-03-13 21:04:00,
2013-03-13 15:19:00,40.8,15.0,30.42,ESE,105,3.0,-999.0,35,-99.99,,,0.00,weatherlink.com 1.10,2013-03-13 21:19:00,
2013-03-13 15:34:00,41.2,15.0,30.43,SW,219,0.0,-999.0,35,-99.99,,,0.00,weatherlink.com 1.10,2013-03-13 21:34:00,
2013-03-13 15:49:00,40.2,16.0,30.43,SSW,211,0.0,-999.0,37,-99.99,,,0.00,weatherlink.com 1.10,2013-03-13 21:49:00,
2013-03-13 16:04:00,39.2,15.0,30.43,ESE,123,2.0,-999.0,37,-99.99,,,0.00,weatherlink.com 1.10,2013-03-13 22:04:00,
2013-03-13 16:19:00,38.8,15.0,30.43,SSW,202,2.0,-999.0,38,-99.99,,,0.00,weatherlink.com 1.10,2013-03-13 22:19:00,
2013-03-13 16:35:00,38.0,13.0,30.43,SE,134,1.0,-999.0,36,-99.99,,,0.00,weatherlink.com 1.10,2013-03-13 22:35:00,
2013-03-13 16:50:00,37.5,14.0,30.43,West,262,1.0,-999.0,38,-99.99,,,0.00,weatherlink.com 1.10,2013-03-13 22:50:00,
2013-03-13 17:05:00,37.9,15.0,30.44,SSW,192,0.0,-999.0,40,-99.99,,,0.00,weatherlink.com 1.10,2013-03-13 23:05:00,
2013-03-13 17:20:00,38.6,15.0,30.45,SSW,200,2.0,-999.0,39,-99.99,,,0.00,weatherlink.com 1.10,2013-03-13 23:20:00,
2013-03-13 17:34:00,37.9,15.0,30.44,SSW,210,0.0,-999.0,39,-99.99,,,0.00,weatherlink.com 1.10,2013-03-13 23:34:00,
2013-03-13 17:49:00,36.9,14.0,30.44,SW,225,0.0,-999.0,39,-99.99,,,0.00,weatherlink.com 1.10,2013-03-13 23:49:00,
2013-03-13 18:04:00,36.4,14.0,30.43,SW,226,0.0,-999.0,40,-99.99,,,0.00,weatherlink.com 1.10,2013-03-14 00:04:00,
2013-03-13 18:19:00,35.9,15.0,30.44,SW,226,0.0,-999.0,43,-99.99,,,0.00,weatherlink.com 1.10,2013-03-14 00:19:00,
2013-03-13 18:34:00,35.1,15.0,30.44,SW,226,0.0,-999.0,44,-99.99,,,0.00,weatherlink.com 1.10,2013-03-14 00:34:00,
2013-03-13 18:49:00,34.1,14.0,30.45,ESE,119,0.0,-999.0,43,-99.99,,,0.00,weatherlink.com 1.10,2013-03-14 00:49:00,
2013-03-13 19:04:00,33.0,14.0,30.45,ESE,111,1.0,-999.0,46,-99.99,,,0.00,weatherlink.com 1.10,2013-03-14 01:04:00,
2013-03-13 19:19:00,31.9,13.0,30.46,ESE,103,1.0,-999.0,46,-99.99,,,0.00,weatherlink.com 1.10,2013-03-14 01:19:00,
2013-03-13 19:34:00,31.1,13.0,30.46,East,88,1.0,-999.0,47,-99.99,,,0.00,weatherlink.com 1.10,2013-03-14 01:34:00,
2013-03-13 19:49:00,30.4,13.0,30.46,East,85,1.0,-999.0,48,-99.99,,,0.00,weatherlink.com 1.10,2013-03-14 01:49:00,
2013-03-13 20:04:00,29.7,13.0,30.46,East,85,0.0,-999.0,50,-99.99,,,0.00,weatherlink.com 1.10,2013-03-14 02:04:00,
2013-03-13 20:19:00,28.6,12.0,30.47,East,85,0.0,-999.0,50,-99.99,,,0.00,weatherlink.com 1.10,2013-03-14 02:19:00,
2013-03-13 20:34:00,27.9,12.0,30.47,East,85,0.0,-999.0,51,-99.99,,,0.00,weatherlink.com 1.10,2013-03-14 02:34:00,
2013-03-13 20:49:00,27.6,12.0,30.47,East,85,0.0,-999.0,52,-99.99,,,0.00,weatherlink.com 1.10,2013-03-14 02:49:00,
2013-03-13 21:04:00,27.9,12.0,30.47,East,85,1.0,-999.0,52,-99.99,,,0.00,weatherlink.com 1.10,2013-03-14 03:04:00,
2013-03-13 21:19:00,28.3,13.0,30.47,East,85,2.0,-999.0,54,-99.99,,,0.00,weatherlink.com 1.10,2013-03-14 03:19:00,
2013-03-13 21:35:00,28.1,12.0,30.48,East,85,0.0,-999.0,52,-99.99,,,0.00,weatherlink.com 1.10,2013-03-14 03:35:00,
2013-03-13 21:50:00,28.3,13.0,30.47,East,86,1.0,-999.0,52,-99.99,,,0.00,weatherlink.com 1.10,2013-03-14 03:50:00,
2013-03-13 22:04:00,28.4,12.0,30.47,East,86,0.0,-999.0,51,-99.99,,,0.00,weatherlink.com 1.10,2013-03-14 04:04:00,
2013-03-13 22:19:00,28.6,13.0,30.48,East,86,1.0,-999.0,53,-99.99,,,0.00,weatherlink.com 1.10,2013-03-14 04:19:00,
2013-03-13 22:34:00,28.7,13.0,30.48,East,85,2.0,-999.0,52,-99.99,,,0.00,weatherlink.com 1.10,2013-03-14 04:34:00,
2013-03-13 22:49:00,28.8,13.0,30.48,East,82,2.0,-999.0,52,-99.99,,,0.00,weatherlink.com 1.10,2013-03-14 04:49:00,
2013-03-13 23:04:00,29.2,14.0,30.48,East,86,3.0,-999.0,54,-99.99,,,0.00,weatherlink.com 1.10,2013-03-14 05:04:00,
2013-03-13 23:19:00,29.1,14.0,30.48,East,86,2.0,-999.0,53,-99.99,,,0.00,weatherlink.com 1.10,2013-03-14 05:19:00,
2013-03-13 23:34:00,29.5,13.0,30.48,East,94,0.0,-999.0,51,-99.99,,,0.00,weatherlink.com 1.10,2013-03-14 05:34:00,
2013-03-13 23:49:00,29.7,13.0,30.47,SE,134,1.0,-999.0,51,-99.99,,,0.00,weatherlink.com 1.10,2013-03-14 05:49:00,